Tracking 27126 objects as of 30-Mar-2023
HD Live streaming from Space Station
objects crossing your sky now

STARLINK-3511

Track STARLINK-3511 now!
10-day predictions
STARLINK-3511 is classified as:


NORAD ID: 51752
Int'l Code: 2022-016AQ
Perigee: 546.1 km
Apogee: 547.6 km
Inclination: 53.2 °
Period: 95.4 minutes
Semi major axis: 6917 km
RCS: Unknown
Launch date: February 21, 2022
Source: United States (US)
Launch site: AIR FORCE EASTERN TEST RANGE (AFETR)
Your satellite tracking list
Your tracking list is empty




NASA's NSSDC Master Catalog

Two Line Element Set (TLE):
1 51752U 22016AQ  23089.42212342  .00000376  00000-0  41675-4 0  9996
2 51752  53.2150  96.1800 0001077  84.0476 276.0638 15.08841654 62480
Source of the keplerian elements: AFSPC